Time,TemperatureF,DewpointF,PressureIn,WindDirection,WindDirectionDegrees,WindSpeedMPH,WindSpeedGustMPH,Humidity,HourlyPrecipIn,Conditions,Clouds,dailyrainin,SoftwareType,DateUTC
2013-04-22 00:00:00,48.5,33.5,30.33,ENE,63,0.0,0.0,56,0.00,,,0.00,VWS V14.01,2013-04-22 04:00:00,
2013-04-22 00:01:00,48.5,33.5,30.33,ENE,63,0.0,1.0,56,0.00,,,0.00,VWS V14.01,2013-04-22 04:01:00,
2013-04-22 00:02:00,48.5,33.5,30.33,ENE,63,0.0,0.0,56,0.00,,,0.00,VWS V14.01,2013-04-22 04:02:00,
2013-04-22 00:05:00,48.4,33.4,30.33,ENE,63,0.0,0.0,56,0.00,,,0.00,VWS V14.01,2013-04-22 04:05:00,
2013-04-22 00:06:00,48.4,33.4,30.33,ENE,63,0.0,0.0,56,0.00,,,0.00,VWS V14.01,2013-04-22 04:06:00,
2013-04-22 00:11:00,48.4,33.4,30.33,ENE,63,1.0,1.0,56,0.00,,,0.00,VWS V14.01,2013-04-22 04:11:00,
2013-04-22 00:16:00,48.5,33.5,30.32,ENE,63,0.0,0.0,56,0.00,,,0.00,VWS V14.01,2013-04-22 04:16:00,
2013-04-22 00:21:00,48.5,33.5,30.32,ENE,63,0.0,0.0,56,0.00,,,0.00,VWS V14.01,2013-04-22 04:21:00,
2013-04-22 00:26:00,48.4,33.4,30.32,ENE,63,0.0,0.0,56,0.00,,,0.00,VWS V14.01,2013-04-22 04:26:00,
2013-04-22 00:31:00,48.3,33.8,30.32,ENE,63,1.0,1.0,57,0.00,,,0.00,VWS V14.01,2013-04-22 04:31:00,
2013-04-22 00:36:00,48.2,33.3,30.32,ENE,63,0.0,0.0,56,0.00,,,0.00,VWS V14.01,2013-04-22 04:36:00,
2013-04-22 00:41:00,48.2,33.3,30.33,ENE,63,0.0,0.0,56,0.00,,,0.00,VWS V14.01,2013-04-22 04:41:00,
2013-04-22 00:46:00,48.1,33.2,30.32,ENE,63,0.0,0.0,56,0.00,,,0.00,VWS V14.01,2013-04-22 04:46:00,
2013-04-22 00:51:00,48.1,33.2,30.32,ENE,63,0.0,0.0,56,0.00,,,0.00,VWS V14.01,2013-04-22 04:51:00,
2013-04-22 00:56:00,48.0,33.1,30.32,ENE,63,0.0,0.0,56,0.00,,,0.00,VWS V14.01,2013-04-22 04:56:00,
2013-04-22 01:01:00,47.9,33.0,30.32,ENE,63,0.0,0.0,56,0.00,,,0.00,VWS V14.01,2013-04-22 05:01:00,
2013-04-22 01:06:00,47.8,33.3,30.32,ENE,63,0.0,0.0,57,0.00,,,0.00,VWS V14.01,2013-04-22 05:06:00,
2013-04-22 01:11:00,47.7,33.2,30.32,ENE,63,0.0,0.0,57,0.00,,,0.00,VWS V14.01,2013-04-22 05:11:00,
2013-04-22 01:16:00,47.6,33.1,30.31,ENE,63,0.0,0.0,57,0.00,,,0.00,VWS V14.01,2013-04-22 05:16:00,
2013-04-22 01:21:00,47.5,33.0,30.31,ENE,63,0.0,0.0,57,0.00,,,0.00,VWS V14.01,2013-04-22 05:21:00,
2013-04-22 01:26:00,47.4,33.0,30.31,ENE,63,0.0,0.0,57,0.00,,,0.00,VWS V14.01,2013-04-22 05:26:00,
2013-04-22 01:31:00,47.4,33.0,30.31,ENE,63,0.0,0.0,57,0.00,,,0.00,VWS V14.01,2013-04-22 05:31:00,
2013-04-22 01:36:00,47.4,33.4,30.30,ENE,63,0.0,0.0,58,0.00,,,0.00,VWS V14.01,2013-04-22 05:36:00,
2013-04-22 01:41:00,47.3,33.3,30.30,ENE,63,0.0,0.0,58,0.00,,,0.00,VWS V14.01,2013-04-22 05:41:00,
2013-04-22 01:46:00,47.2,33.2,30.30,ENE,63,0.0,0.0,58,0.00,,,0.00,VWS V14.01,2013-04-22 05:46:00,
2013-04-22 01:51:00,47.1,33.1,30.30,ENE,63,0.0,0.0,58,0.00,,,0.00,VWS V14.01,2013-04-22 05:51:00,
2013-04-22 01:56:00,47.0,33.0,30.30,ENE,63,0.0,0.0,58,0.00,,,0.00,VWS V14.01,2013-04-22 05:56:00,
2013-04-22 02:01:00,46.9,32.9,30.30,ENE,63,0.0,0.0,58,0.00,,,0.00,VWS V14.01,2013-04-22 06:01:00,
2013-04-22 02:06:00,46.8,33.2,30.29,ENE,63,0.0,1.0,59,0.00,,,0.00,VWS V14.01,2013-04-22 06:06:00,
2013-04-22 02:11:00,46.7,33.2,30.29,ENE,63,0.0,0.0,59,0.00,,,0.00,VWS V14.01,2013-04-22 06:11:00,
2013-04-22 02:16:00,46.7,33.2,30.29,ENE,63,0.0,0.0,59,0.00,,,0.00,VWS V14.01,2013-04-22 06:16:00,
2013-04-22 02:21:00,46.5,33.4,30.29,ENE,63,0.0,0.0,60,0.00,,,0.00,VWS V14.01,2013-04-22 06:21:00,
2013-04-22 02:26:00,46.4,33.7,30.29,ENE,63,0.0,0.0,61,0.00,,,0.00,VWS V14.01,2013-04-22 06:26:00,
2013-04-22 02:31:00,46.1,33.0,30.29,ENE,63,0.0,0.0,60,0.00,,,0.00,VWS V14.01,2013-04-22 06:31:00,
2013-04-22 02:36:00,46.1,33.4,30.28,ENE,63,0.0,0.0,61,0.00,,,0.00,VWS V14.01,2013-04-22 06:36:00,
2013-04-22 02:41:00,46.0,33.3,30.28,ENE,63,0.0,1.0,61,0.00,,,0.00,VWS V14.01,2013-04-22 06:41:00,
2013-04-22 02:46:00,46.0,33.3,30.28,ENE,63,0.0,0.0,61,0.00,,,0.00,VWS V14.01,2013-04-22 06:46:00,
2013-04-22 02:51:00,45.9,33.6,30.28,ENE,63,0.0,0.0,62,0.00,,,0.00,VWS V14.01,2013-04-22 06:51:00,
2013-04-22 02:56:00,45.8,33.5,30.28,ENE,63,0.0,0.0,62,0.00,,,0.00,VWS V14.01,2013-04-22 06:56:00,
2013-04-22 03:01:00,45.6,33.3,30.27,ENE,63,0.0,0.0,62,0.00,,,0.00,VWS V14.01,2013-04-22 07:01:00,
2013-04-22 03:06:00,45.4,33.6,30.27,ENE,63,0.0,1.0,63,0.00,,,0.00,VWS V14.01,2013-04-22 07:06:00,
2013-04-22 03:11:00,45.2,33.8,30.27,ENE,63,0.0,0.0,64,0.00,,,0.00,VWS V14.01,2013-04-22 07:11:00,
2013-04-22 03:16:00,45.1,33.7,30.27,ENE,63,0.0,0.0,64,0.00,,,0.00,VWS V14.01,2013-04-22 07:16:00,
2013-04-22 03:21:00,45.0,33.6,30.27,ENE,63,1.0,2.0,64,0.00,,,0.00,VWS V14.01,2013-04-22 07:21:00,
2013-04-22 03:26:00,45.0,33.6,30.27,ENE,63,0.0,0.0,64,0.00,,,0.00,VWS V14.01,2013-04-22 07:26:00,
2013-04-22 03:32:00,45.0,33.6,30.27,ENE,69,4.0,4.0,64,0.00,,,0.00,VWS V14.01,2013-04-22 07:32:00,
2013-04-22 03:37:00,45.0,33.6,30.27,ENE,70,0.0,0.0,64,0.00,,,0.00,VWS V14.01,2013-04-22 07:37:00,
2013-04-22 03:42:00,44.9,33.9,30.27,ENE,70,0.0,0.0,65,0.00,,,0.00,VWS V14.01,2013-04-22 07:42:00,
2013-04-22 03:47:00,44.7,33.7,30.27,ENE,69,1.0,2.0,65,0.00,,,0.00,VWS V14.01,2013-04-22 07:47:00,
2013-04-22 03:52:00,44.6,34.0,30.26,ENE,70,0.0,1.0,66,0.00,,,0.00,VWS V14.01,2013-04-22 07:52:00,
2013-04-22 03:57:00,44.4,33.4,30.26,ENE,70,0.0,0.0,65,0.00,,,0.00,VWS V14.01,2013-04-22 07:57:00,
2013-04-22 04:02:00,44.3,33.3,30.27,ENE,69,0.0,0.0,65,0.00,,,0.00,VWS V14.01,2013-04-22 08:02:00,
2013-04-22 04:07:00,44.3,33.3,30.26,ENE,69,0.0,0.0,65,0.00,,,0.00,VWS V14.01,2013-04-22 08:07:00,
2013-04-22 04:12:00,44.2,33.2,30.26,ENE,70,0.0,0.0,65,0.00,,,0.00,VWS V14.01,2013-04-22 08:12:00,
2013-04-22 04:17:00,44.1,33.5,30.26,ENE,69,0.0,0.0,66,0.00,,,0.00,VWS V14.01,2013-04-22 08:17:00,
2013-04-22 04:22:00,44.0,33.4,30.26,ENE,70,0.0,1.0,66,0.00,,,0.00,VWS V14.01,2013-04-22 08:22:00,
2013-04-22 04:27:00,43.9,33.3,30.26,ENE,70,0.0,1.0,66,0.00,,,0.00,VWS V14.01,2013-04-22 08:27:00,
2013-04-22 04:32:00,43.8,33.6,30.26,ENE,70,0.0,0.0,67,0.00,,,0.00,VWS V14.01,2013-04-22 08:32:00,
2013-04-22 04:37:00,43.7,33.5,30.26,ENE,70,0.0,0.0,67,0.00,,,0.00,VWS V14.01,2013-04-22 08:37:00,
2013-04-22 04:42:00,43.6,33.4,30.26,ENE,69,0.0,0.0,67,0.00,,,0.00,VWS V14.01,2013-04-22 08:42:00,
2013-04-22 04:47:00,43.5,33.3,30.26,ENE,70,0.0,0.0,67,0.00,,,0.00,VWS V14.01,2013-04-22 08:47:00,
2013-04-22 04:52:00,43.3,33.1,30.26,ENE,70,0.0,1.0,67,0.00,,,0.00,VWS V14.01,2013-04-22 08:52:00,
2013-04-22 04:57:00,43.2,33.4,30.26,ENE,69,0.0,0.0,68,0.00,,,0.00,VWS V14.01,2013-04-22 08:57:00,
2013-04-22 05:02:00,43.1,33.3,30.26,ENE,69,0.0,0.0,68,0.00,,,0.00,VWS V14.01,2013-04-22 09:02:00,
2013-04-22 05:07:00,43.1,33.3,30.26,ENE,70,0.0,0.0,68,0.00,,,0.00,VWS V14.01,2013-04-22 09:07:00,
2013-04-22 05:12:00,43.0,33.2,30.26,ENE,70,0.0,0.0,68,0.00,,,0.00,VWS V14.01,2013-04-22 09:12:00,
2013-04-22 05:17:00,43.1,33.3,30.26,ENE,70,0.0,0.0,68,0.00,,,0.00,VWS V14.01,2013-04-22 09:17:00,
2013-04-22 05:22:00,43.0,33.2,30.26,ENE,70,0.0,0.0,68,0.00,,,0.00,VWS V14.01,2013-04-22 09:22:00,
2013-04-22 05:27:00,42.9,33.4,30.26,ENE,69,0.0,0.0,69,0.00,,,0.00,VWS V14.01,2013-04-22 09:27:00,
2013-04-22 05:32:00,42.8,33.3,30.26,ENE,70,0.0,0.0,69,0.00,,,0.00,VWS V14.01,2013-04-22 09:32:00,
2013-04-22 05:37:00,42.7,33.2,30.26,ENE,70,0.0,0.0,69,0.00,,,0.00,VWS V14.01,2013-04-22 09:37:00,
2013-04-22 05:42:00,42.6,33.2,30.26,ENE,70,0.0,0.0,69,0.00,,,0.00,VWS V14.01,2013-04-22 09:42:00,
2013-04-22 05:47:00,42.5,33.1,30.26,ENE,70,0.0,0.0,69,0.00,,,0.00,VWS V14.01,2013-04-22 09:47:00,
2013-04-22 05:52:00,42.4,33.3,30.26,ENE,69,0.0,0.0,70,0.00,,,0.00,VWS V14.01,2013-04-22 09:52:00,
2013-04-22 05:57:00,42.3,33.2,30.27,ENE,69,0.0,1.0,70,0.00,,,0.00,VWS V14.01,2013-04-22 09:57:00,
2013-04-22 06:02:00,42.2,33.1,30.26,ENE,69,0.0,0.0,70,0.00,,,0.00,VWS V14.01,2013-04-22 10:02:00,
2013-04-22 06:07:00,42.0,33.3,30.26,ENE,70,0.0,0.0,71,0.00,,,0.00,VWS V14.01,2013-04-22 10:07:00,
2013-04-22 06:12:00,42.0,33.3,30.27,ENE,70,0.0,0.0,71,0.00,,,0.00,VWS V14.01,2013-04-22 10:12:00,
2013-04-22 06:17:00,41.9,33.2,30.27,ENE,69,0.0,0.0,71,0.00,,,0.00,VWS V14.01,2013-04-22 10:17:00,
2013-04-22 06:22:00,41.9,33.2,30.27,ENE,70,0.0,0.0,71,0.00,,,0.00,VWS V14.01,2013-04-22 10:22:00,
2013-04-22 06:27:00,41.8,33.1,30.27,ENE,70,0.0,0.0,71,0.00,,,0.00,VWS V14.01,2013-04-22 10:27:00,
2013-04-22 06:32:00,41.8,33.1,30.27,ENE,69,0.0,0.0,71,0.00,,,0.00,VWS V14.01,2013-04-22 10:32:00,
2013-04-22 06:38:00,41.8,32.8,30.27,ENE,70,0.0,1.0,70,0.00,,,0.00,VWS V14.01,2013-04-22 10:38:00,
2013-04-22 06:43:00,41.8,33.1,30.27,ENE,69,0.0,0.0,71,0.00,,,0.00,VWS V14.01,2013-04-22 10:43:00,
2013-04-22 06:48:00,41.8,33.5,30.27,ENE,69,0.0,0.0,72,0.00,,,0.00,VWS V14.01,2013-04-22 10:48:00,
2013-04-22 06:53:00,41.6,33.3,30.27,ENE,70,0.0,0.0,72,0.00,,,0.00,VWS V14.01,2013-04-22 10:53:00,
2013-04-22 06:58:00,41.5,33.2,30.27,ENE,69,0.0,0.0,72,0.00,,,0.00,VWS V14.01,2013-04-22 10:58:00,
2013-04-22 07:03:00,41.3,33.3,30.27,ENE,70,0.0,0.0,73,0.00,,,0.00,VWS V14.01,2013-04-22 11:03:00,
2013-04-22 07:08:00,41.2,33.2,30.27,ENE,70,0.0,0.0,73,0.00,,,0.00,VWS V14.01,2013-04-22 11:08:00,
2013-04-22 07:13:00,41.2,33.2,30.27,ENE,69,0.0,0.0,73,0.00,,,0.00,VWS V14.01,2013-04-22 11:13:00,
2013-04-22 07:18:00,41.3,33.0,30.27,ENE,69,0.0,0.0,72,0.00,,,0.00,VWS V14.01,2013-04-22 11:18:00,
2013-04-22 07:23:00,41.4,33.4,30.27,ENE,69,0.0,0.0,73,0.00,,,0.00,VWS V14.01,2013-04-22 11:23:00,
2013-04-22 07:28:00,41.6,33.6,30.27,ENE,69,0.0,0.0,73,0.00,,,0.00,VWS V14.01,2013-04-22 11:28:00,
2013-04-22 07:33:00,41.8,33.8,30.27,ENE,69,1.0,1.0,73,0.00,,,0.00,VWS V14.01,2013-04-22 11:33:00,
2013-04-22 07:38:00,41.9,33.9,30.27,ENE,69,0.0,1.0,73,0.00,,,0.00,VWS V14.01,2013-04-22 11:38:00,
2013-04-22 07:43:00,42.1,34.1,30.27,ENE,69,0.0,0.0,73,0.00,,,0.00,VWS V14.01,2013-04-22 11:43:00,
2013-04-22 07:48:00,42.3,34.3,30.27,ENE,69,0.0,1.0,73,0.00,,,0.00,VWS V14.01,2013-04-22 11:48:00,
2013-04-22 07:53:00,42.4,34.4,30.27,ENE,70,0.0,0.0,73,0.00,,,0.00,VWS V14.01,2013-04-22 11:53:00,
2013-04-22 07:58:00,42.7,34.7,30.27,ENE,70,0.0,0.0,73,0.00,,,0.00,VWS V14.01,2013-04-22 11:58:00,
2013-04-22 08:03:00,43.2,34.5,30.27,ENE,69,0.0,0.0,71,0.00,,,0.00,VWS V14.01,2013-04-22 12:03:00,
2013-04-22 08:08:00,43.9,35.1,30.27,ENE,70,0.0,0.0,71,0.00,,,0.00,VWS V14.01,2013-04-22 12:08:00,
2013-04-22 08:13:00,44.9,35.4,30.27,ENE,70,0.0,0.0,69,0.00,,,0.00,VWS V14.01,2013-04-22 12:13:00,
2013-04-22 08:18:00,45.9,36.0,30.27,ENE,70,0.0,0.0,68,0.00,,,0.00,VWS V14.01,2013-04-22 12:18:00,
2013-04-22 08:23:00,47.0,36.2,30.27,ENE,69,0.0,0.0,66,0.00,,,0.00,VWS V14.01,2013-04-22 12:23:00,
2013-04-22 08:28:00,48.0,37.2,30.28,ENE,69,0.0,0.0,66,0.00,,,0.00,VWS V14.01,2013-04-22 12:28:00,
2013-04-22 08:33:00,48.7,37.1,30.27,ENE,70,0.0,1.0,64,0.00,,,0.00,VWS V14.01,2013-04-22 12:33:00,
2013-04-22 08:38:00,49.2,38.0,30.27,ENE,69,0.0,0.0,65,0.00,,,0.00,VWS V14.01,2013-04-22 12:38:00,
2013-04-22 08:43:00,49.6,37.9,30.27,ENE,70,0.0,1.0,64,0.00,,,0.00,VWS V14.01,2013-04-22 12:43:00,
2013-04-22 08:48:00,50.0,38.3,30.27,ENE,72,0.0,1.0,64,0.00,,,0.00,VWS V14.01,2013-04-22 12:48:00,
2013-04-22 08:53:00,50.5,38.4,30.27,ESE,117,1.0,1.0,63,0.00,,,0.00,VWS V14.01,2013-04-22 12:53:00,
2013-04-22 08:58:00,51.1,39.0,30.27,ESE,121,1.0,2.0,63,0.00,,,0.00,VWS V14.01,2013-04-22 12:58:00,
2013-04-22 09:03:00,51.7,39.5,30.27,ESE,121,1.0,2.0,63,0.00,,,0.00,VWS V14.01,2013-04-22 13:03:00,
2013-04-22 09:08:00,52.4,40.2,30.27,SSE,151,2.0,2.0,63,0.00,,,0.00,VWS V14.01,2013-04-22 13:08:00,
2013-04-22 09:13:00,53.1,40.4,30.27,SSE,161,1.0,1.0,62,0.00,,,0.00,VWS V14.01,2013-04-22 13:13:00,
2013-04-22 09:18:00,53.8,40.7,30.27,SW,220,1.0,2.0,61,0.00,,,0.00,VWS V14.01,2013-04-22 13:18:00,
2013-04-22 09:23:00,54.3,41.2,30.27,SW,227,5.0,5.0,61,0.00,,,0.00,VWS V14.01,2013-04-22 13:23:00,
2013-04-22 09:28:00,54.7,41.5,30.27,West,267,5.0,6.0,61,0.00,,,0.00,VWS V14.01,2013-04-22 13:28:00,
2013-04-22 09:33:00,55.0,41.4,30.27,WSW,249,0.0,1.0,60,0.00,,,0.00,VWS V14.01,2013-04-22 13:33:00,
2013-04-22 09:38:00,55.5,42.3,30.27,SW,218,3.0,6.0,61,0.00,,,0.00,VWS V14.01,2013-04-22 13:38:00,
2013-04-22 09:43:00,56.1,42.0,30.27,SW,225,0.0,5.0,59,0.00,,,0.00,VWS V14.01,2013-04-22 13:43:00,
2013-04-22 09:48:00,56.6,42.9,30.27,WSW,238,3.0,3.0,60,0.00,,,0.00,VWS V14.01,2013-04-22 13:48:00,
2013-04-22 09:54:00,57.1,42.9,30.26,SW,218,2.0,5.0,59,0.00,,,0.00,VWS V14.01,2013-04-22 13:54:00,
2013-04-22 09:59:00,57.7,43.0,30.26,SSW,207,0.0,1.0,58,0.00,,,0.00,VWS V14.01,2013-04-22 13:59:00,
2013-04-22 10:04:00,58.4,44.1,30.27,SSW,195,2.0,6.0,59,0.00,,,0.00,VWS V14.01,2013-04-22 14:04:00,
2013-04-22 10:09:00,59.0,44.3,30.26,South,182,1.0,4.0,58,0.00,,,0.00,VWS V14.01,2013-04-22 14:09:00,
2013-04-22 10:14:00,59.0,44.3,30.26,SSE,160,6.0,9.0,58,0.00,,,0.00,VWS V14.01,2013-04-22 14:14:00,
2013-04-22 10:19:00,59.7,44.9,30.26,SW,218,10.0,13.0,58,0.00,,,0.00,VWS V14.01,2013-04-22 14:19:00,
2013-04-22 10:24:00,59.8,45.5,30.27,SW,229,0.0,3.0,59,0.00,,,0.00,VWS V14.01,2013-04-22 14:24:00,
2013-04-22 10:29:00,60.3,44.6,30.26,South,187,2.0,4.0,56,0.00,,,0.00,VWS V14.01,2013-04-22 14:29:00,
2013-04-22 10:34:00,60.4,44.7,30.26,WSW,244,1.0,4.0,56,0.00,,,0.00,VWS V14.01,2013-04-22 14:34:00,
2013-04-22 10:39:00,60.4,44.7,30.26,WSW,245,6.0,6.0,56,0.00,,,0.00,VWS V14.01,2013-04-22 14:39:00,
2013-04-22 10:44:00,60.3,44.6,30.26,SW,229,4.0,4.0,56,0.00,,,0.00,VWS V14.01,2013-04-22 14:44:00,
2013-04-22 10:49:00,60.5,45.7,30.26,WSW,250,4.0,4.0,58,0.00,,,0.00,VWS V14.01,2013-04-22 14:49:00,
2013-04-22 10:54:00,60.9,45.1,30.26,SW,215,3.0,6.0,56,0.00,,,0.00,VWS V14.01,2013-04-22 14:54:00,
2013-04-22 10:59:00,61.2,45.9,30.26,WSW,237,2.0,3.0,57,0.00,,,0.00,VWS V14.01,2013-04-22 14:59:00,
2013-04-22 11:04:00,61.4,45.6,30.26,SSW,192,1.0,3.0,56,0.00,,,0.00,VWS V14.01,2013-04-22 15:04:00,
2013-04-22 11:09:00,61.8,46.4,30.26,SW,219,1.0,3.0,57,0.00,,,0.00,VWS V14.01,2013-04-22 15:09:00,
2013-04-22 11:14:00,61.8,46.0,30.26,SW,222,4.0,5.0,56,0.00,,,0.00,VWS V14.01,2013-04-22 15:14:00,
2013-04-22 11:19:00,62.3,46.9,30.26,SW,231,6.0,7.0,57,0.00,,,0.00,VWS V14.01,2013-04-22 15:19:00,
2013-04-22 11:24:00,62.7,46.8,30.26,SSW,197,7.0,7.0,56,0.00,,,0.00,VWS V14.01,2013-04-22 15:24:00,
2013-04-22 11:29:00,62.5,46.1,30.25,West,265,5.0,7.0,55,0.00,,,0.00,VWS V14.01,2013-04-22 15:29:00,
2013-04-22 11:34:00,62.5,45.7,30.26,SE,141,4.0,5.0,54,0.00,,,0.00,VWS V14.01,2013-04-22 15:34:00,
2013-04-22 11:39:00,63.2,46.3,30.25,SSE,150,1.0,2.0,54,0.00,,,0.00,VWS V14.01,2013-04-22 15:39:00,
2013-04-22 11:44:00,64.1,46.6,30.26,SW,223,1.0,2.0,53,0.00,,,0.00,VWS V14.01,2013-04-22 15:44:00,
2013-04-22 11:49:00,64.1,47.1,30.25,WSW,246,1.0,3.0,54,0.00,,,0.00,VWS V14.01,2013-04-22 15:49:00,
2013-04-22 11:54:00,64.3,46.8,30.25,WSW,245,5.0,9.0,53,0.00,,,0.00,VWS V14.01,2013-04-22 15:54:00,
2013-04-22 11:59:00,64.0,46.5,30.25,West,266,5.0,8.0,53,0.00,,,0.00,VWS V14.01,2013-04-22 15:59:00,
2013-04-22 12:04:00,64.1,46.6,30.24,SW,222,4.0,4.0,53,0.00,,,0.00,VWS V14.01,2013-04-22 16:04:00,
2013-04-22 12:09:00,64.6,47.1,30.24,South,176,1.0,1.0,53,0.00,,,0.00,VWS V14.01,2013-04-22 16:09:00,
2013-04-22 12:14:00,64.9,46.9,30.24,SSW,198,0.0,2.0,52,0.00,,,0.00,VWS V14.01,2013-04-22 16:14:00,
2013-04-22 12:19:00,65.3,47.8,30.24,SE,128,2.0,5.0,53,0.00,,,0.00,VWS V14.01,2013-04-22 16:19:00,
2013-04-22 12:24:00,65.8,46.7,30.24,SSW,209,1.0,6.0,50,0.00,,,0.00,VWS V14.01,2013-04-22 16:24:00,
2013-04-22 12:29:00,65.3,46.7,30.24,SW,227,4.0,5.0,51,0.00,,,0.00,VWS V14.01,2013-04-22 16:29:00,
2013-04-22 12:34:00,65.1,47.1,30.23,SW,231,2.0,3.0,52,0.00,,,0.00,VWS V14.01,2013-04-22 16:34:00,
2013-04-22 12:39:00,65.8,47.2,30.23,SSE,148,6.0,7.0,51,0.00,,,0.00,VWS V14.01,2013-04-22 16:39:00,
2013-04-22 12:44:00,66.0,47.4,30.23,SW,234,2.0,10.0,51,0.00,,,0.00,VWS V14.01,2013-04-22 16:44:00,
2013-04-22 12:49:00,66.2,47.6,30.23,SE,144,4.0,4.0,51,0.00,,,0.00,VWS V14.01,2013-04-22 16:49:00,
2013-04-22 12:54:00,66.4,47.7,30.23,SSE,161,3.0,5.0,51,0.00,,,0.00,VWS V14.01,2013-04-22 16:54:00,
2013-04-22 12:59:00,67.0,47.2,30.22,SSW,207,3.0,6.0,49,0.00,,,0.00,VWS V14.01,2013-04-22 16:59:00,
2013-04-22 13:04:00,66.7,47.0,30.22,SSW,194,4.0,5.0,49,0.00,,,0.00,VWS V14.01,2013-04-22 17:04:00,
2013-04-22 13:10:00,66.9,47.7,30.21,SSW,212,3.0,3.0,50,0.00,,,0.00,VWS V14.01,2013-04-22 17:10:00,
2013-04-22 13:15:00,66.7,46.4,30.21,West,269,4.0,6.0,48,0.00,,,0.00,VWS V14.01,2013-04-22 17:15:00,
2013-04-22 13:20:00,67.0,47.2,30.21,SW,219,10.0,10.0,49,0.00,,,0.00,VWS V14.01,2013-04-22 17:20:00,
2013-04-22 13:25:00,66.6,45.8,30.20,SW,214,0.0,0.0,47,0.00,,,0.00,VWS V14.01,2013-04-22 17:25:00,
2013-04-22 13:30:00,66.8,47.0,30.20,SW,217,5.0,6.0,49,0.00,,,0.00,VWS V14.01,2013-04-22 17:30:00,
2013-04-22 13:35:00,67.7,46.2,30.20,SW,215,2.0,4.0,46,0.00,,,0.00,VWS V14.01,2013-04-22 17:35:00,
2013-04-22 13:40:00,67.9,46.4,30.20,SSW,210,5.0,5.0,46,0.00,,,0.00,VWS V14.01,2013-04-22 17:40:00,
2013-04-22 13:45:00,68.0,46.5,30.19,WSW,253,1.0,4.0,46,0.00,,,0.00,VWS V14.01,2013-04-22 17:45:00,
2013-04-22 13:50:00,68.5,44.5,30.19,South,181,2.0,5.0,42,0.00,,,0.00,VWS V14.01,2013-04-22 17:50:00,
2013-04-22 13:55:00,68.8,46.6,30.19,ESE,117,0.0,2.0,45,0.00,,,0.00,VWS V14.01,2013-04-22 17:55:00,
2013-04-22 14:00:00,68.7,45.9,30.19,WSW,250,4.0,9.0,44,0.00,,,0.00,VWS V14.01,2013-04-22 18:00:00,
2013-04-22 14:05:00,68.7,45.3,30.19,SE,133,4.0,7.0,43,0.00,,,0.00,VWS V14.01,2013-04-22 18:05:00,
2013-04-22 14:10:00,69.2,45.2,30.18,SSW,207,5.0,5.0,42,0.00,,,0.00,VWS V14.01,2013-04-22 18:10:00,
2013-04-22 14:15:00,69.1,45.1,30.18,ENE,65,2.0,3.0,42,0.00,,,0.00,VWS V14.01,2013-04-22 18:15:00,
2013-04-22 14:20:00,69.2,45.2,30.18,South,171,2.0,3.0,42,0.00,,,0.00,VWS V14.01,2013-04-22 18:20:00,
2013-04-22 14:25:00,69.2,45.8,30.18,SW,215,1.0,1.0,43,0.00,,,0.00,VWS V14.01,2013-04-22 18:25:00,
2013-04-22 14:30:00,68.7,45.3,30.17,SW,222,3.0,5.0,43,0.00,,,0.00,VWS V14.01,2013-04-22 18:30:00,
2013-04-22 14:35:00,69.3,46.5,30.17,SSW,205,1.0,2.0,44,0.00,,,0.00,VWS V14.01,2013-04-22 18:35:00,
2013-04-22 14:40:00,69.4,45.3,30.17,South,188,0.0,1.0,42,0.00,,,0.00,VWS V14.01,2013-04-22 18:40:00,
2013-04-22 14:45:00,69.8,46.9,30.16,South,182,4.0,4.0,44,0.00,,,0.00,VWS V14.01,2013-04-22 18:45:00,
2013-04-22 14:50:00,70.1,45.3,30.16,WSW,257,9.0,10.0,41,0.00,,,0.00,VWS V14.01,2013-04-22 18:50:00,
2013-04-22 14:55:00,68.9,44.9,30.16,SSW,203,4.0,9.0,42,0.00,,,0.00,VWS V14.01,2013-04-22 18:55:00,
2013-04-22 15:00:00,68.8,44.2,30.16,SSE,154,4.0,5.0,41,0.00,,,0.00,VWS V14.01,2013-04-22 19:00:00,
2013-04-22 15:05:00,69.4,46.0,30.15,SE,129,3.0,3.0,43,0.00,,,0.00,VWS V14.01,2013-04-22 19:05:00,
2013-04-22 15:10:00,70.0,47.1,30.15,NE,51,0.0,1.0,44,0.00,,,0.00,VWS V14.01,2013-04-22 19:10:00,
2013-04-22 15:15:00,70.1,46.6,30.15,SW,227,6.0,10.0,43,0.00,,,0.00,VWS V14.01,2013-04-22 19:15:00,
2013-04-22 15:20:00,69.6,45.5,30.15,SW,221,8.0,9.0,42,0.00,,,0.00,VWS V14.01,2013-04-22 19:20:00,
2013-04-22 15:25:00,69.2,45.8,30.15,SSW,206,2.0,4.0,43,0.00,,,0.00,VWS V14.01,2013-04-22 19:25:00,
2013-04-22 15:30:00,68.8,46.0,30.14,SW,218,3.0,4.0,44,0.00,,,0.00,VWS V14.01,2013-04-22 19:30:00,
2013-04-22 15:35:00,69.0,45.0,30.14,South,188,0.0,0.0,42,0.00,,,0.00,VWS V14.01,2013-04-22 19:35:00,
2013-04-22 15:40:00,69.1,44.4,30.14,SSW,196,2.0,2.0,41,0.00,,,0.00,VWS V14.01,2013-04-22 19:40:00,
2013-04-22 15:45:00,69.1,45.7,30.13,West,259,4.0,7.0,43,0.00,,,0.00,VWS V14.01,2013-04-22 19:45:00,
2013-04-22 15:50:00,69.5,46.0,30.13,SW,223,3.0,4.0,43,0.00,,,0.00,VWS V14.01,2013-04-22 19:50:00,
2013-04-22 15:55:00,70.3,46.8,30.12,SSW,194,5.0,11.0,43,0.00,,,0.00,VWS V14.01,2013-04-22 19:55:00,
2013-04-22 16:00:00,70.3,45.5,30.12,SE,128,1.0,4.0,41,0.00,,,0.00,VWS V14.01,2013-04-22 20:00:00,
2013-04-22 16:05:00,70.2,46.1,30.12,SW,221,3.0,4.0,42,0.00,,,0.00,VWS V14.01,2013-04-22 20:05:00,
2013-04-22 16:10:00,70.0,46.5,30.12,SW,232,1.0,1.0,43,0.00,,,0.00,VWS V14.01,2013-04-22 20:10:00,
2013-04-22 16:15:00,70.3,46.8,30.12,SW,225,1.0,3.0,43,0.00,,,0.00,VWS V14.01,2013-04-22 20:15:00,
2013-04-22 16:20:00,70.6,47.0,30.11,WSW,246,4.0,5.0,43,0.00,,,0.00,VWS V14.01,2013-04-22 20:20:00,
2013-04-22 16:25:00,70.8,46.6,30.11,SW,234,0.0,2.0,42,0.00,,,0.00,VWS V14.01,2013-04-22 20:25:00,
2013-04-22 16:30:00,71.4,46.5,30.11,SE,138,3.0,3.0,41,0.00,,,0.00,VWS V14.01,2013-04-22 20:30:00,
2013-04-22 16:36:00,71.8,47.5,30.11,SSE,153,1.0,5.0,42,0.00,,,0.00,VWS V14.01,2013-04-22 20:36:00,
2013-04-22 16:41:00,71.3,46.4,30.10,WSW,237,2.0,2.0,41,0.00,,,0.00,VWS V14.01,2013-04-22 20:41:00,
2013-04-22 16:46:00,71.9,48.2,30.10,South,179,1.0,1.0,43,0.00,,,0.00,VWS V14.01,2013-04-22 20:46:00,
2013-04-22 16:51:00,72.1,47.1,30.10,ENE,69,2.0,6.0,41,0.00,,,0.00,VWS V14.01,2013-04-22 20:51:00,
2013-04-22 16:56:00,72.0,47.0,30.10,NNE,30,1.0,2.0,41,0.00,,,0.00,VWS V14.01,2013-04-22 20:56:00,
2013-04-22 17:01:00,71.3,46.4,30.10,SW,229,0.0,1.0,41,0.00,,,0.00,VWS V14.01,2013-04-22 21:01:00,
2013-04-22 17:06:00,70.9,47.3,30.10,WSW,241,4.0,4.0,43,0.00,,,0.00,VWS V14.01,2013-04-22 21:06:00,
2013-04-22 17:11:00,70.9,45.4,30.10,SW,221,1.0,5.0,40,0.00,,,0.00,VWS V14.01,2013-04-22 21:11:00,
2013-04-22 17:16:00,70.8,46.0,30.10,South,190,1.0,4.0,41,0.00,,,0.00,VWS V14.01,2013-04-22 21:16:00,
2013-04-22 17:21:00,71.1,46.9,30.10,SW,221,5.0,9.0,42,0.00,,,0.00,VWS V14.01,2013-04-22 21:21:00,
2013-04-22 17:26:00,70.8,46.6,30.09,SSW,213,0.0,4.0,42,0.00,,,0.00,VWS V14.01,2013-04-22 21:26:00,
2013-04-22 17:31:00,70.7,45.9,30.09,South,182,3.0,3.0,41,0.00,,,0.00,VWS V14.01,2013-04-22 21:31:00,
2013-04-22 17:36:00,70.8,46.0,30.09,SSW,194,0.0,1.0,41,0.00,,,0.00,VWS V14.01,2013-04-22 21:36:00,
2013-04-22 17:41:00,70.4,46.2,30.09,SSW,201,0.0,0.0,42,0.00,,,0.00,VWS V14.01,2013-04-22 21:41:00,
2013-04-22 17:46:00,71.0,47.4,30.09,SSW,211,4.0,6.0,43,0.00,,,0.00,VWS V14.01,2013-04-22 21:46:00,
2013-04-22 17:51:00,71.3,46.4,30.09,East,87,4.0,4.0,41,0.00,,,0.00,VWS V14.01,2013-04-22 21:51:00,
2013-04-22 17:56:00,71.1,45.6,30.08,South,186,1.0,1.0,40,0.00,,,0.00,VWS V14.01,2013-04-22 21:56:00,
2013-04-22 18:01:00,71.3,45.8,30.08,SW,221,0.0,0.0,40,0.00,,,0.00,VWS V14.01,2013-04-22 22:01:00,
2013-04-22 18:06:00,71.8,46.2,30.08,East,82,3.0,4.0,40,0.00,,,0.00,VWS V14.01,2013-04-22 22:06:00,
2013-04-22 18:11:00,72.0,46.4,30.08,East,88,0.0,1.0,40,0.00,,,0.00,VWS V14.01,2013-04-22 22:11:00,
2013-04-22 18:16:00,71.6,46.0,30.08,East,86,3.0,4.0,40,0.00,,,0.00,VWS V14.01,2013-04-22 22:16:00,
2013-04-22 18:21:00,71.3,45.8,30.08,NE,51,2.0,3.0,40,0.00,,,0.00,VWS V14.01,2013-04-22 22:21:00,
2013-04-22 18:26:00,71.1,45.6,30.08,NE,53,0.0,0.0,40,0.00,,,0.00,VWS V14.01,2013-04-22 22:26:00,
2013-04-22 18:31:00,71.2,46.3,30.07,NE,56,0.0,1.0,41,0.00,,,0.00,VWS V14.01,2013-04-22 22:31:00,
2013-04-22 18:36:00,71.3,47.0,30.07,NE,53,0.0,1.0,42,0.00,,,0.00,VWS V14.01,2013-04-22 22:36:00,
2013-04-22 18:41:00,71.4,46.5,30.07,WSW,243,0.0,1.0,41,0.00,,,0.00,VWS V14.01,2013-04-22 22:41:00,
2013-04-22 18:46:00,71.2,45.0,30.07,SW,222,3.0,5.0,39,0.00,,,0.00,VWS V14.01,2013-04-22 22:46:00,
2013-04-22 18:51:00,71.2,45.0,30.07,SSW,198,0.0,2.0,39,0.00,,,0.00,VWS V14.01,2013-04-22 22:51:00,
2013-04-22 18:56:00,71.2,45.7,30.07,SSW,198,0.0,0.0,40,0.00,,,0.00,VWS V14.01,2013-04-22 22:56:00,
2013-04-22 19:01:00,71.3,45.1,30.07,SSW,198,0.0,1.0,39,0.00,,,0.00,VWS V14.01,2013-04-22 23:01:00,
2013-04-22 19:06:00,71.0,45.5,30.07,SSW,200,0.0,1.0,40,0.00,,,0.00,VWS V14.01,2013-04-22 23:06:00,
2013-04-22 19:11:00,70.6,45.8,30.07,ENE,69,1.0,1.0,41,0.00,,,0.00,VWS V14.01,2013-04-22 23:11:00,
2013-04-22 19:16:00,70.2,44.8,30.06,ENE,71,0.0,0.0,40,0.00,,,0.00,VWS V14.01,2013-04-22 23:16:00,
2013-04-22 19:21:00,69.9,45.8,30.06,ENE,71,0.0,0.0,42,0.00,,,0.00,VWS V14.01,2013-04-22 23:21:00,
2013-04-22 19:26:00,69.7,45.0,30.06,ENE,69,0.0,1.0,41,0.00,,,0.00,VWS V14.01,2013-04-22 23:26:00,
2013-04-22 19:31:00,69.3,44.6,30.06,ENE,69,0.0,1.0,41,0.00,,,0.00,VWS V14.01,2013-04-22 23:31:00,
2013-04-22 19:36:00,68.9,44.9,30.06,ENE,68,1.0,2.0,42,0.00,,,0.00,VWS V14.01,2013-04-22 23:36:00,
2013-04-22 19:41:00,68.6,45.8,30.06,ENE,68,0.0,1.0,44,0.00,,,0.00,VWS V14.01,2013-04-22 23:41:00,
2013-04-22 19:46:00,68.3,45.6,30.06,ENE,68,0.0,0.0,44,0.00,,,0.00,VWS V14.01,2013-04-22 23:46:00,
2013-04-22 19:51:00,68.0,45.3,30.06,ENE,69,0.0,2.0,44,0.00,,,0.00,VWS V14.01,2013-04-22 23:51:00,
2013-04-22 19:56:00,67.8,45.7,30.06,ENE,68,0.0,0.0,45,0.00,,,0.00,VWS V14.01,2013-04-22 23:56:00,
2013-04-22 20:02:00,67.5,45.4,30.06,ENE,69,0.0,0.0,45,0.00,,,0.00,VWS V14.01,2013-04-23 00:02:00,
2013-04-22 20:07:00,67.0,45.6,30.06,ENE,69,0.0,0.0,46,0.00,,,0.00,VWS V14.01,2013-04-23 00:07:00,
2013-04-22 20:12:00,66.6,45.2,30.06,ENE,69,0.0,0.0,46,0.00,,,0.00,VWS V14.01,2013-04-23 00:12:00,
2013-04-22 20:17:00,66.1,45.3,30.06,ENE,69,0.0,1.0,47,0.00,,,0.00,VWS V14.01,2013-04-23 00:17:00,
2013-04-22 20:22:00,65.7,44.9,30.06,ENE,69,0.0,0.0,47,0.00,,,0.00,VWS V14.01,2013-04-23 00:22:00,
2013-04-22 20:27:00,65.2,45.0,30.06,ENE,69,0.0,0.0,48,0.00,,,0.00,VWS V14.01,2013-04-23 00:27:00,
2013-04-22 20:32:00,64.7,45.1,30.06,ENE,69,0.0,0.0,49,0.00,,,0.00,VWS V14.01,2013-04-23 00:32:00,
2013-04-22 20:37:00,64.3,45.3,30.05,ENE,69,0.0,0.0,50,0.00,,,0.00,VWS V14.01,2013-04-23 00:37:00,
2013-04-22 20:42:00,63.8,44.8,30.05,ENE,69,0.0,0.0,50,0.00,,,0.00,VWS V14.01,2013-04-23 00:42:00,
2013-04-22 20:47:00,63.4,45.0,30.06,ENE,68,0.0,0.0,51,0.00,,,0.00,VWS V14.01,2013-04-23 00:47:00,
2013-04-22 20:52:00,63.0,44.6,30.06,ENE,69,0.0,0.0,51,0.00,,,0.00,VWS V14.01,2013-04-23 00:52:00,
2013-04-22 20:57:00,62.6,44.8,30.06,ENE,69,0.0,0.0,52,0.00,,,0.00,VWS V14.01,2013-04-23 00:57:00,
2013-04-22 21:02:00,62.3,44.5,30.06,ENE,69,0.0,0.0,52,0.00,,,0.00,VWS V14.01,2013-04-23 01:02:00,
2013-04-22 21:07:00,62.1,44.8,30.06,ENE,69,0.0,0.0,53,0.00,,,0.00,VWS V14.01,2013-04-23 01:07:00,
2013-04-22 21:12:00,61.9,44.6,30.06,ENE,68,0.0,0.0,53,0.00,,,0.00,VWS V14.01,2013-04-23 01:12:00,
2013-04-22 21:17:00,61.8,45.0,30.06,ENE,69,0.0,0.0,54,0.00,,,0.00,VWS V14.01,2013-04-23 01:17:00,
2013-04-22 21:22:00,61.6,44.8,30.06,ENE,68,0.0,0.0,54,0.00,,,0.00,VWS V14.01,2013-04-23 01:22:00,
2013-04-22 21:27:00,61.5,44.7,30.06,ENE,69,0.0,0.0,54,0.00,,,0.00,VWS V14.01,2013-04-23 01:27:00,
2013-04-22 21:32:00,61.4,45.1,30.06,ENE,69,0.0,0.0,55,0.00,,,0.00,VWS V14.01,2013-04-23 01:32:00,
2013-04-22 21:37:00,61.2,44.9,30.06,ENE,68,0.0,0.0,55,0.00,,,0.00,VWS V14.01,2013-04-23 01:37:00,
2013-04-22 21:42:00,60.9,44.6,30.06,ENE,69,0.0,0.0,55,0.00,,,0.00,VWS V14.01,2013-04-23 01:42:00,
2013-04-22 21:47:00,60.8,44.5,30.06,ENE,68,0.0,0.0,55,0.00,,,0.00,VWS V14.01,2013-04-23 01:47:00,
2013-04-22 21:52:00,60.7,44.5,30.06,ENE,69,0.0,0.0,55,0.00,,,0.00,VWS V14.01,2013-04-23 01:52:00,
2013-04-22 21:57:00,60.6,44.4,30.06,ENE,68,0.0,0.0,55,0.00,,,0.00,VWS V14.01,2013-04-23 01:57:00,
2013-04-22 22:02:00,60.6,44.4,30.06,ENE,68,0.0,0.0,55,0.00,,,0.00,VWS V14.01,2013-04-23 02:02:00,
2013-04-22 22:07:00,60.5,44.3,30.06,ENE,68,0.0,0.0,55,0.00,,,0.00,VWS V14.01,2013-04-23 02:07:00,
2013-04-22 22:12:00,60.4,44.2,30.06,ENE,69,0.0,0.0,55,0.00,,,0.00,VWS V14.01,2013-04-23 02:12:00,
2013-04-22 22:17:00,60.3,44.6,30.07,ENE,69,0.0,0.0,56,0.00,,,0.00,VWS V14.01,2013-04-23 02:17:00,
2013-04-22 22:22:00,60.2,44.5,30.07,ENE,68,0.0,0.0,56,0.00,,,0.00,VWS V14.01,2013-04-23 02:22:00,
2013-04-22 22:27:00,60.0,44.3,30.07,ENE,69,0.0,0.0,56,0.00,,,0.00,VWS V14.01,2013-04-23 02:27:00,
2013-04-22 22:32:00,59.7,44.0,30.07,ENE,69,0.0,0.0,56,0.00,,,0.00,VWS V14.01,2013-04-23 02:32:00,
2013-04-22 22:37:00,59.6,43.9,30.07,ENE,68,0.0,0.0,56,0.00,,,0.00,VWS V14.01,2013-04-23 02:37:00,
2013-04-22 22:42:00,59.5,43.8,30.07,ENE,68,0.0,0.0,56,0.00,,,0.00,VWS V14.01,2013-04-23 02:42:00,
2013-04-22 22:47:00,59.6,44.4,30.08,ENE,68,2.0,4.0,57,0.00,,,0.00,VWS V14.01,2013-04-23 02:47:00,
2013-04-22 22:52:00,59.3,45.0,30.08,ENE,69,0.0,0.0,59,0.00,,,0.00,VWS V14.01,2013-04-23 02:52:00,
2013-04-22 22:57:00,59.0,44.3,30.08,ENE,68,0.0,0.0,58,0.00,,,0.00,VWS V14.01,2013-04-23 02:57:00,
2013-04-22 23:02:00,58.7,44.4,30.08,ENE,68,0.0,0.0,59,0.00,,,0.00,VWS V14.01,2013-04-23 03:02:00,
2013-04-22 23:07:00,58.5,44.2,30.08,ENE,69,0.0,0.0,59,0.00,,,0.00,VWS V14.01,2013-04-23 03:07:00,
2013-04-22 23:12:00,58.6,44.3,30.08,ENE,68,0.0,0.0,59,0.00,,,0.00,VWS V14.01,2013-04-23 03:12:00,
2013-04-22 23:18:00,58.7,44.0,30.07,ENE,69,0.0,0.0,58,0.00,,,0.00,VWS V14.01,2013-04-23 03:18:00,
2013-04-22 23:23:00,59.0,44.3,30.07,ENE,68,0.0,0.0,58,0.00,,,0.00,VWS V14.01,2013-04-23 03:23:00,
2013-04-22 23:28:00,59.0,43.8,30.07,ENE,69,0.0,0.0,57,0.00,,,0.00,VWS V14.01,2013-04-23 03:28:00,
2013-04-22 23:33:00,59.0,43.8,30.07,ENE,69,0.0,0.0,57,0.00,,,0.00,VWS V14.01,2013-04-23 03:33:00,
2013-04-22 23:38:00,59.0,43.8,30.07,ENE,68,0.0,0.0,57,0.00,,,0.00,VWS V14.01,2013-04-23 03:38:00,
2013-04-22 23:43:00,59.0,44.3,30.06,ENE,69,0.0,0.0,58,0.00,,,0.00,VWS V14.01,2013-04-23 03:43:00,
2013-04-22 23:48:00,58.8,44.1,30.06,ENE,69,0.0,0.0,58,0.00,,,0.00,VWS V14.01,2013-04-23 03:48:00,
2013-04-22 23:53:00,58.6,43.9,30.06,ENE,68,0.0,0.0,58,0.00,,,0.00,VWS V14.01,2013-04-23 03:53:00,
2013-04-22 23:58:00,58.5,44.2,30.06,ENE,68,0.0,0.0,59,0.00,,,0.00,VWS V14.01,2013-04-23 03:58:00,